Skip Page Navigation
NASA JPL Caltech
NASA Logo - Jet Propulsion Laboratory + View the NASA Portal
+ Near-Earth Object (NEO) Program
Search JPL
JPL Home Earth Solar System Stars & Galaxies Technology
JPL Solar System Dynamics
BODIES ORBITS EPHEMERIDES TOOLS PHYSICAL DATA DISCOVERY FAQ SITE MAP
JPL Small-Body Database Browser
Search: [ help ]  
29636 (1998 VH6)
Classification: Main-belt Asteroid          SPK-ID: 2029636
Ephemeris | Orbit Diagram | Orbital Elements | Physical Parameters | Discovery Circumstances ]

[ show orbit diagram ]
Orbital Elements at Epoch 2457000.5 (2014-Dec-09.0) TDB
Reference: JPL 11 (heliocentric ecliptic J2000)
 Element Value Uncertainty (1-sigma)   Units 
e .0996966028024843 5.8291e-08  
a 2.301540381044671 1.3904e-08 AU
q 2.072084623841782 1.3631e-07 AU
i 9.427931446371566 8.3013e-06 deg
node 24.57541611323503 3.1965e-05 deg
peri 68.63213131179766 5.54e-05 deg
M 179.8446040583479 4.3617e-05 deg
tp 2456363.380002273126
(2013-Mar-11.88000227)
0.00015262 JED
period 1275.341011105683
3.49
1.1557e-05
3.164e-08
d
yr
n .2822774433387747 2.558e-09 deg/d
Q 2.53099613824756 1.529e-08 AU
  Orbit Determination Parameters
   # obs. used (total)      643  
   data-arc span      8666 days (23.73 yr)  
   first obs. used      1991-11-28  
   last obs. used      2015-08-20  
   planetary ephem.      DE431  
   SB-pert. ephem.      SB431-BIG16  
   condition code      0  
   fit RMS      .54837  
   data source      ORB  
   producer      Otto Matic  
   solution date      2015-Sep-02 15:15:31  

Additional Information
 Earth MOID = 1.10883 AU 
 T_jup = 3.566 
[ show covariance matrix ]

Ephemeris | Orbit Diagram | Orbital Elements | Physical Parameters | Discovery Circumstances ]

Physical Parameter Table
Parameter Symbol Value Units Sigma Reference Notes
absolute magnitude H 15.0 mag n/a MPO296368  

29636 (1998 VH6)          Discovered 1998-Nov-11 by Shimizu, Y., Urata, T. at Nachi-Katsuura
Reference: 20011002/Numbers.arcLast Updated: 2004-04-19

Alternate Designations
 1998 VH6 = 2000 GJ70 
Ephemeris | Orbit Diagram | Orbital Elements | Physical Parameters | Discovery Circumstances ]
ABOUT SSD CREDITS/AWARDS PRIVACY/COPYRIGHT GLOSSARY LINKS
FirstGov 2015-Sep-02 23:50 UT
(server date/time)  
NASA Home Page
Site Manager:   Ryan S. Park
Webmaster  Alan B. Chamberlin